GFSMA_prec_precacc_090.txt.gz
Total_Precipitation_Accumulation
0.21 0.21 0.29 0.30 0.06 0.00 0.00 0.00 0.00 0.00 0.00 0.00 0.00 0.00 0.00 0.00 0.00 0.00 0.00 0.00 0.00 0.00 0.00 0.00 0.00 0.00 0.00 0.03 0.07 0.10 0.17 0.24 0.21 0.25 0.40 0.45 0.31 0.28 0.23 0.21 0.16 0.12 0.16
0.21 0.18 0.22 0.18 0.04 0.00 0.00 0.00 0.00 0.00 0.00 0.00 0.00 0.00 0.00 0.00 0.00 0.00 0.00 0.00 0.00 0.00 0.00 0.00 0.00 0.00 0.00 0.00 0.01 0.04 0.08 0.12 0.21 0.29 0.33 0.37 0.35 0.27 0.25 0.22 0.21 0.19 0.16
0.15 0.11 0.20 0.14 0.03 0.00 0.00 0.00 0.00 0.00 0.00 0.00 0.00 0.00 0.00 0.00 0.00 0.00 0.00 0.00 0.00 0.00 0.00 0.00 0.00 0.00 0.00 0.00 0.00 0.00 0.00 0.01 0.06 0.15 0.21 0.31 0.43 0.35 0.33 0.31 0.28 0.30 0.26
0.16 0.13 0.19 0.21 0.09 0.01 0.00 0.00 0.00 0.00 0.00 0.00 0.00 0.00 0.00 0.00 0.00 0.00 0.00 0.00 0.00 0.00 0.00 0.00 0.00 0.00 0.00 0.00 0.00 0.00 0.00 0.00 0.01 0.06 0.11 0.27 0.49 0.43 0.42 0.34 0.36 0.42 0.41
0.23 0.13 0.21 0.18 0.19 0.07 0.01 0.00 0.00 0.00 0.00 0.00 0.00 0.00 0.00 0.00 0.00 0.00 0.00 0.00 0.00 0.00 0.00 0.00 0.00 0.00 0.00 0.00 0.00 0.00 0.00 0.00 0.00 0.02 0.07 0.12 0.22 0.60 0.78 0.65 0.43 0.45 0.53
0.34 0.27 0.23 0.14 0.09 0.05 0.01 0.00 0.00 0.00 0.00 0.00 0.00 0.00 0.00 0.00 0.00 0.00 0.00 0.00 0.00 0.00 0.00 0.00 0.00 0.00 0.00 0.00 0.00 0.00 0.00 0.00 0.01 0.01 0.03 0.06 0.10 0.17 0.30 0.55 0.78 0.81 0.73
0.36 0.48 0.47 0.37 0.13 0.03 0.01 0.01 0.01 0.00 0.00 0.00 0.00 0.00 0.00 0.00 0.00 0.00 0.00 0.00 0.00 0.00 0.00 0.00 0.00 0.00 0.00 0.00 0.00 0.00 0.01 0.01 0.00 0.00 0.02 0.02 0.02 0.04 0.17 0.35 0.65 0.94 1.19
0.43 0.34 0.33 0.52 0.30 0.12 0.02 0.02 0.02 0.02 0.03 0.02 0.01 0.00 0.01 0.01 0.00 0.00 0.00 0.00 0.00 0.00 0.00 0.00 0.00 0.00 0.00 0.00 0.00 0.00 0.01 0.01 0.01 0.01 0.01 0.01 0.02 0.02 0.01 0.04 0.22 0.64 0.94
0.34 0.35 0.39 0.40 0.24 0.11 0.05 0.02 0.01 0.00 0.01 0.03 0.03 0.04 0.12 0.12 0.07 0.01 0.00 0.01 0.02 0.01 0.01 0.01 0.01 0.01 0.00 0.00 0.00 0.00 0.00 0.00 0.01 0.02 0.04 0.03 0.03 0.03 0.03 0.03 0.09 0.22 0.49
0.25 0.29 0.35 0.39 0.32 0.19 0.15 0.09 0.05 0.04 0.07 0.11 0.11 0.11 0.17 0.19 0.21 0.18 0.05 0.01 0.02 0.02 0.02 0.01 0.03 0.05 0.05 0.05 0.03 0.01 0.00 0.00 0.00 0.00 0.01 0.04 0.04 0.04 0.06 0.08 0.10 0.14 0.24
0.14 0.17 0.20 0.20 0.16 0.12 0.11 0.13 0.14 0.20 0.28 0.36 0.31 0.22 0.17 0.24 0.29 0.23 0.18 0.11 0.03 0.03 0.03 0.04 0.05 0.08 0.14 0.13 0.12 0.10 0.07 0.03 0.01 0.00 0.00 0.01 0.02 0.05 0.05 0.07 0.09 0.13 0.23
0.10 0.10 0.08 0.07 0.08 0.11 0.14 0.25 0.48 0.44 0.39 0.48 0.51 0.45 0.24 0.23 0.26 0.24 0.17 0.11 0.17 0.12 0.08 0.14 0.20 0.15 0.15 0.14 0.15 0.19 0.12 0.07 0.04 0.03 0.02 0.01 0.00 0.02 0.06 0.08 0.09 0.12 0.21
0.06 0.15 0.22 0.20 0.16 0.19 0.35 0.43 0.47 0.42 0.46 0.52 0.60 0.55 0.47 0.30 0.26 0.28 0.26 0.24 0.32 0.23 0.19 0.16 0.17 0.15 0.22 0.39 0.35 0.26 0.16 0.18 0.14 0.05 0.02 0.03 0.04 0.03 0.04 0.06 0.08 0.10 0.14
0.24 0.39 0.53 0.56 0.47 0.37 0.37 0.48 0.59 0.57 0.60 0.52 0.50 0.46 0.40 0.37 0.39 0.42 0.47 0.59 0.49 0.26 0.16 0.12 0.05 0.10 0.13 0.14 0.26 0.28 0.16 0.14 0.16 0.16 0.11 0.05 0.01 0.01 0.02 0.03 0.04 0.06 0.08
0.28 0.39 0.50 0.40 0.40 0.37 0.40 0.56 0.62 0.47 0.39 0.40 0.39 0.39 0.33 0.27 0.28 0.29 0.35 0.46 0.72 0.47 0.09 0.04 0.08 0.09 0.14 0.12 0.14 0.21 0.25 0.19 0.15 0.14 0.10 0.07 0.07 0.04 0.01 0.01 0.02 0.03 0.05
0.77 0.49 0.53 0.52 0.39 0.25 0.24 0.26 0.30 0.31 0.31 0.29 0.29 0.22 0.18 0.15 0.19 0.19 0.20 0.20 0.22 0.23 0.16 0.01 0.00 0.00 0.01 0.03 0.05 0.07 0.13 0.20 0.13 0.14 0.18 0.13 0.07 0.09 0.09 0.06 0.02 0.01 0.01
0.96 0.82 0.62 0.63 0.56 0.50 0.46 0.40 0.33 0.27 0.24 0.20 0.17 0.17 0.14 0.14 0.15 0.14 0.14 0.15 0.12 0.12 0.11 0.03 0.02 0.00 0.00 0.00 0.00 0.01 0.01 0.03 0.05 0.06 0.14 0.20 0.14 0.11 0.10 0.11 0.10 0.05 0.02
0.72 0.50 0.36 0.28 0.29 0.34 0.37 0.30 0.24 0.19 0.18 0.18 0.20 0.26 0.26 0.27 0.23 0.19 0.17 0.17 0.16 0.15 0.17 0.12 0.06 0.04 0.03 0.02 0.01 0.00 0.00 0.01 0.00 0.02 0.04 0.08 0.14 0.11 0.11 0.09 0.08 0.09 0.10
0.19 0.12 0.10 0.13 0.15 0.14 0.20 0.27 0.30 0.28 0.27 0.24 0.24 0.27 0.30 0.33 0.29 0.27 0.29 0.28 0.24 0.22 0.20 0.22 0.13 0.05 0.04 0.02 0.02 0.01 0.01 0.01 0.00 0.01 0.01 0.02 0.02 0.04 0.06 0.05 0.05 0.07 0.11
0.22 0.15 0.13 0.14 0.14 0.14 0.14 0.12 0.11 0.09 0.09 0.13 0.17 0.20 0.19 0.19 0.17 0.15 0.14 0.13 0.15 0.18 0.19 0.23 0.21 0.12 0.09 0.06 0.06 0.06 0.06 0.03 0.03 0.02 0.02 0.03 0.04 0.04 0.05 0.08 0.08 0.09 0.13
0.06 0.08 0.12 0.19 0.18 0.14 0.14 0.12 0.08 0.07 0.07 0.08 0.08 0.07 0.05 0.11 0.12 0.10 0.11 0.11 0.16 0.20 0.22 0.24 0.23 0.21 0.16 0.14 0.15 0.14 0.18 0.12 0.09 0.08 0.09 0.09 0.13 0.15 0.16 0.16 0.15 0.14 0.10
0.10 0.14 0.16 0.15 0.13 0.11 0.17 0.11 0.06 0.04 0.04 0.06 0.05 0.05 0.07 0.16 0.12 0.15 0.16 0.17 0.16 0.23 0.29 0.30 0.31 0.32 0.26 0.24 0.27 0.31 0.30 0.33 0.35 0.27 0.30 0.27 0.22 0.20 0.17 0.21 0.25 0.21 0.16
0.29 0.23 0.24 0.18 0.11 0.08 0.14 0.08 0.08 0.04 0.06 0.07 0.07 0.06 0.06 0.08 0.12 0.05 0.10 0.17 0.19 0.25 0.32 0.39 0.45 0.39 0.41 0.38 0.46 0.53 0.56 0.59 0.53 0.35 0.34 0.31 0.23 0.22 0.16 0.16 0.21 0.20 0.14
0.32 0.23 0.14 0.13 0.11 0.12 0.15 0.10 0.11 0.04 0.04 0.06 0.06 0.06 0.08 0.09 0.12 0.13 0.19 0.25 0.24 0.28 0.35 0.41 0.52 0.55 0.54 0.54 0.56 0.57 0.60 0.62 0.52 0.39 0.34 0.34 0.22 0.22 0.21 0.18 0.14 0.14 0.11
0.14 0.11 0.14 0.13 0.11 0.14 0.20 0.15 0.13 0.06 0.09 0.10 0.10 0.15 0.20 0.18 0.40 0.44 0.39 0.37 0.39 0.43 0.59 0.61 0.58 0.64 0.64 0.54 0.44 0.52 0.55 0.60 0.58 0.41 0.36 0.36 0.24 0.22 0.19 0.16 0.16 0.13 0.07
0.14 0.14 0.13 0.10 0.19 0.15 0.27 0.19 0.16 0.11 0.14 0.18 0.17 0.20 0.39 0.28 0.52 0.42 0.42 0.35 0.40 0.36 0.37 0.44 0.44 0.44 0.42 0.41 0.41 0.44 0.50 0.69 0.58 0.46 0.19 0.38 0.21 0.28 0.35 0.14 0.10 0.05 0.04

GFSMA_prec_precacc_096.txt.gz
Total_Precipitation_Accumulation
0.54 0.87 0.61 0.52 0.37 0.78 0.26 0.05 0.01 0.00 0.00 0.00 0.00 0.00 0.00 0.00 0.00 0.00 0.00 0.00 0.01 0.02 0.01 0.01 0.01 0.01 0.01 0.04 0.08 0.10 0.17 0.24 0.21 0.25 0.40 0.45 0.31 0.28 0.23 0.21 0.16 0.12 0.16
0.50 0.85 0.66 0.40 0.23 0.48 0.25 0.07 0.01 0.00 0.00 0.00 0.00 0.00 0.00 0.00 0.00 0.00 0.00 0.00 0.00 0.01 0.01 0.01 0.01 0.01 0.00 0.00 0.01 0.04 0.08 0.12 0.21 0.29 0.33 0.37 0.35 0.27 0.25 0.22 0.21 0.19 0.16
0.23 0.42 0.54 0.29 0.18 0.19 0.18 0.06 0.01 0.00 0.00 0.00 0.00 0.00 0.00 0.00 0.00 0.00 0.00 0.00 0.00 0.00 0.01 0.01 0.01 0.00 0.00 0.00 0.00 0.00 0.00 0.01 0.06 0.15 0.21 0.31 0.43 0.35 0.33 0.31 0.28 0.30 0.26
0.16 0.16 0.30 0.35 0.20 0.11 0.07 0.02 0.00 0.00 0.00 0.00 0.00 0.00 0.00 0.00 0.00 0.00 0.00 0.00 0.00 0.00 0.00 0.00 0.00 0.00 0.00 0.00 0.00 0.00 0.00 0.00 0.01 0.06 0.11 0.27 0.49 0.43 0.42 0.34 0.36 0.42 0.41
0.25 0.15 0.23 0.25 0.24 0.10 0.02 0.01 0.00 0.00 0.00 0.00 0.00 0.00 0.00 0.00 0.00 0.00 0.00 0.00 0.00 0.00 0.00 0.00 0.00 0.00 0.00 0.00 0.00 0.00 0.00 0.00 0.00 0.02 0.07 0.12 0.22 0.60 0.78 0.65 0.43 0.45 0.53
0.40 0.31 0.29 0.25 0.10 0.06 0.01 0.00 0.00 0.00 0.00 0.00 0.00 0.00 0.00 0.00 0.00 0.00 0.00 0.00 0.00 0.00 0.00 0.00 0.00 0.00 0.00 0.00 0.00 0.00 0.00 0.00 0.01 0.01 0.03 0.06 0.10 0.17 0.30 0.55 0.78 0.81 0.73
0.49 0.62 0.54 0.57 0.37 0.06 0.03 0.01 0.01 0.00 0.00 0.00 0.00 0.00 0.00 0.00 0.00 0.00 0.00 0.00 0.00 0.00 0.00 0.00 0.00 0.00 0.00 0.00 0.00 0.00 0.01 0.01 0.00 0.00 0.02 0.02 0.02 0.04 0.17 0.35 0.65 0.94 1.19
0.74 0.54 0.55 0.71 0.66 0.32 0.07 0.02 0.02 0.02 0.03 0.02 0.01 0.00 0.01 0.01 0.00 0.00 0.00 0.00 0.00 0.00 0.00 0.00 0.00 0.00 0.00 0.00 0.00 0.00 0.01 0.01 0.01 0.01 0.01 0.01 0.02 0.02 0.01 0.04 0.22 0.64 0.94
0.48 0.67 0.57 0.59 0.58 0.32 0.14 0.05 0.02 0.00 0.01 0.03 0.03 0.04 0.12 0.12 0.07 0.01 0.00 0.01 0.02 0.01 0.01 0.01 0.01 0.01 0.00 0.00 0.00 0.00 0.00 0.00 0.01 0.02 0.04 0.03 0.03 0.03 0.03 0.03 0.09 0.22 0.49
0.27 0.40 0.62 0.53 0.52 0.38 0.26 0.11 0.06 0.04 0.07 0.11 0.11 0.11 0.17 0.19 0.21 0.18 0.05 0.01 0.02 0.02 0.02 0.01 0.03 0.05 0.05 0.05 0.03 0.01 0.00 0.00 0.00 0.00 0.02 0.05 0.05 0.04 0.06 0.08 0.10 0.14 0.24
0.16 0.22 0.32 0.44 0.43 0.38 0.33 0.21 0.15 0.20 0.28 0.36 0.31 0.22 0.17 0.24 0.29 0.23 0.18 0.11 0.04 0.03 0.04 0.04 0.05 0.08 0.14 0.13 0.12 0.10 0.07 0.04 0.01 0.00 0.00 0.01 0.04 0.07 0.07 0.08 0.09 0.13 0.24
0.12 0.13 0.22 0.26 0.39 0.48 0.45 0.44 0.53 0.46 0.40 0.48 0.52 0.45 0.25 0.23 0.26 0.24 0.17 0.12 0.17 0.12 0.08 0.14 0.20 0.15 0.15 0.14 0.15 0.20 0.14 0.08 0.04 0.03 0.02 0.01 0.00 0.03 0.09 0.11 0.12 0.15 0.24
0.07 0.17 0.25 0.24 0.24 0.36 0.73 0.71 0.65 0.51 0.50 0.54 0.61 0.56 0.47 0.30 0.26 0.28 0.26 0.24 0.32 0.23 0.19 0.16 0.17 0.15 0.22 0.39 0.36 0.26 0.17 0.19 0.14 0.05 0.02 0.03 0.04 0.03 0.04 0.07 0.10 0.14 0.18
0.24 0.39 0.53 0.57 0.49 0.40 0.44 0.61 0.67 0.63 0.65 0.54 0.51 0.46 0.40 0.37 0.40 0.43 0.47 0.59 0.49 0.26 0.16 0.12 0.05 0.10 0.13 0.14 0.26 0.28 0.16 0.14 0.16 0.16 0.11 0.05 0.01 0.01 0.02 0.03 0.04 0.07 0.09
0.28 0.39 0.50 0.40 0.40 0.37 0.42 0.58 0.64 0.48 0.40 0.40 0.39 0.39 0.33 0.27 0.28 0.30 0.36 0.47 0.74 0.48 0.09 0.04 0.08 0.09 0.14 0.12 0.14 0.21 0.25 0.19 0.15 0.14 0.10 0.08 0.07 0.04 0.01 0.01 0.03 0.03 0.06
0.77 0.49 0.53 0.52 0.39 0.25 0.25 0.28 0.32 0.31 0.31 0.29 0.30 0.22 0.19 0.16 0.20 0.19 0.21 0.21 0.24 0.26 0.17 0.01 0.00 0.01 0.03 0.04 0.06 0.08 0.13 0.20 0.13 0.14 0.18 0.13 0.08 0.11 0.14 0.11 0.07 0.05 0.04
0.96 0.82 0.62 0.63 0.56 0.50 0.46 0.40 0.34 0.29 0.25 0.20 0.17 0.18 0.14 0.14 0.16 0.14 0.14 0.16 0.13 0.14 0.13 0.03 0.02 0.00 0.00 0.01 0.01 0.01 0.01 0.03 0.05 0.06 0.14 0.20 0.14 0.12 0.14 0.15 0.14 0.09 0.05
0.72 0.50 0.36 0.28 0.29 0.34 0.37 0.30 0.24 0.19 0.19 0.19 0.20 0.26 0.26 0.27 0.24 0.20 0.17 0.18 0.17 0.16 0.18 0.13 0.06 0.04 0.03 0.02 0.01 0.00 0.00 0.01 0.00 0.02 0.04 0.08 0.14 0.11 0.11 0.10 0.09 0.11 0.12
0.19 0.12 0.10 0.13 0.15 0.14 0.20 0.27 0.30 0.28 0.27 0.24 0.24 0.27 0.30 0.33 0.29 0.27 0.29 0.28 0.24 0.22 0.21 0.23 0.13 0.05 0.04 0.02 0.02 0.01 0.01 0.01 0.00 0.01 0.01 0.02 0.02 0.04 0.07 0.06 0.05 0.08 0.12
0.22 0.15 0.13 0.14 0.14 0.14 0.14 0.12 0.11 0.09 0.09 0.13 0.17 0.20 0.19 0.19 0.17 0.15 0.14 0.13 0.15 0.18 0.20 0.24 0.21 0.12 0.09 0.06 0.06 0.06 0.06 0.03 0.03 0.02 0.02 0.03 0.04 0.05 0.06 0.09 0.11 0.12 0.15
0.06 0.08 0.12 0.19 0.18 0.14 0.14 0.12 0.08 0.07 0.07 0.08 0.08 0.07 0.05 0.11 0.12 0.10 0.11 0.11 0.16 0.20 0.22 0.24 0.23 0.21 0.16 0.14 0.15 0.14 0.18 0.12 0.09 0.08 0.09 0.09 0.13 0.16 0.18 0.21 0.22 0.22 0.21
0.10 0.14 0.16 0.15 0.13 0.11 0.17 0.11 0.06 0.04 0.04 0.06 0.05 0.05 0.07 0.16 0.12 0.15 0.16 0.17 0.16 0.23 0.29 0.30 0.31 0.32 0.26 0.24 0.27 0.31 0.30 0.33 0.35 0.27 0.30 0.27 0.22 0.22 0.22 0.28 0.41 0.40 0.33
0.31 0.26 0.26 0.18 0.11 0.08 0.14 0.08 0.08 0.04 0.06 0.07 0.07 0.06 0.06 0.08 0.12 0.05 0.10 0.17 0.19 0.25 0.32 0.39 0.45 0.39 0.41 0.38 0.46 0.54 0.56 0.60 0.57 0.42 0.42 0.37 0.28 0.28 0.24 0.27 0.40 0.40 0.37
0.38 0.28 0.22 0.24 0.19 0.18 0.20 0.12 0.13 0.05 0.05 0.06 0.06 0.06 0.08 0.09 0.12 0.13 0.19 0.25 0.24 0.28 0.35 0.41 0.52 0.55 0.55 0.55 0.58 0.62 0.69 0.75 0.67 0.52 0.46 0.46 0.33 0.36 0.36 0.35 0.42 0.41 0.33
0.19 0.19 0.25 0.27 0.22 0.24 0.36 0.22 0.16 0.10 0.15 0.14 0.11 0.16 0.21 0.18 0.40 0.44 0.39 0.37 0.39 0.43 0.60 0.64 0.62 0.69 0.70 0.62 0.57 0.65 0.74 0.87 0.91 0.70 0.60 0.54 0.41 0.38 0.36 0.37 0.40 0.40 0.29
0.16 0.19 0.22 0.23 0.33 0.23 0.42 0.32 0.25 0.19 0.24 0.24 0.22 0.26 0.54 0.38 0.56 0.44 0.43 0.35 0.40 0.37 0.39 0.45 0.46 0.49 0.48 0.49 0.54 0.54 0.61 0.86 0.82 0.74 0.46 0.60 0.42 0.49 0.57 0.35 0.32 0.28 0.25

GFSMA_prec_precacc_102.txt.gz
Total_Precipitation_Accumulation
0.54 0.88 0.68 0.64 0.46 0.97 0.55 0.31 0.29 0.21 0.10 0.08 0.04 0.01 0.00 0.00 0.00 0.00 0.00 0.01 0.03 0.04 0.03 0.03 0.03 0.03 0.02 0.05 0.09 0.11 0.17 0.24 0.21 0.25 0.40 0.45 0.31 0.28 0.23 0.21 0.16 0.12 0.16
0.51 0.89 0.80 0.71 0.44 0.64 0.50 0.41 0.24 0.21 0.09 0.05 0.03 0.00 0.00 0.00 0.00 0.00 0.00 0.01 0.02 0.02 0.03 0.04 0.03 0.02 0.02 0.01 0.02 0.05 0.08 0.13 0.22 0.29 0.33 0.37 0.35 0.27 0.25 0.22 0.21 0.19 0.16
0.25 0.45 0.66 0.52 0.49 0.49 0.41 0.54 0.49 0.27 0.10 0.05 0.02 0.00 0.00 0.00 0.00 0.00 0.00 0.00 0.01 0.01 0.03 0.04 0.03 0.02 0.01 0.01 0.00 0.01 0.01 0.01 0.06 0.15 0.21 0.31 0.43 0.35 0.33 0.31 0.28 0.30 0.26
0.18 0.19 0.37 0.62 0.48 0.49 0.32 0.33 0.47 0.32 0.12 0.04 0.02 0.00 0.00 0.00 0.00 0.00 0.00 0.00 0.00 0.01 0.02 0.03 0.02 0.02 0.01 0.01 0.00 0.00 0.00 0.00 0.01 0.06 0.11 0.27 0.49 0.43 0.42 0.34 0.36 0.42 0.41
0.27 0.18 0.26 0.37 0.65 0.42 0.33 0.41 0.36 0.33 0.12 0.03 0.01 0.00 0.00 0.00 0.00 0.00 0.00 0.00 0.00 0.00 0.01 0.01 0.01 0.01 0.01 0.00 0.00 0.00 0.00 0.00 0.00 0.02 0.07 0.12 0.22 0.60 0.78 0.65 0.43 0.45 0.53
0.41 0.35 0.31 0.25 0.32 0.48 0.40 0.47 0.54 0.33 0.17 0.03 0.01 0.00 0.00 0.00 0.00 0.00 0.00 0.00 0.00 0.00 0.00 0.01 0.00 0.00 0.00 0.00 0.00 0.00 0.00 0.00 0.01 0.01 0.03 0.06 0.10 0.17 0.30 0.55 0.78 0.81 0.73
0.53 0.64 0.55 0.58 0.38 0.17 0.34 0.26 0.51 0.44 0.22 0.03 0.01 0.00 0.00 0.00 0.00 0.00 0.00 0.00 0.00 0.00 0.00 0.00 0.00 0.00 0.00 0.00 0.00 0.00 0.01 0.01 0.00 0.00 0.02 0.02 0.02 0.04 0.17 0.35 0.65 0.94 1.19
0.81 0.63 0.57 0.73 0.69 0.35 0.14 0.16 0.29 0.38 0.22 0.04 0.01 0.00 0.02 0.01 0.01 0.00 0.00 0.00 0.00 0.01 0.00 0.00 0.00 0.00 0.00 0.00 0.00 0.00 0.01 0.01 0.01 0.01 0.01 0.01 0.02 0.02 0.01 0.04 0.22 0.64 0.94
0.60 0.81 0.71 0.64 0.71 0.44 0.17 0.09 0.09 0.09 0.07 0.05 0.04 0.05 0.13 0.12 0.07 0.01 0.01 0.01 0.02 0.01 0.01 0.01 0.01 0.01 0.00 0.00 0.00 0.00 0.00 0.00 0.01 0.02 0.04 0.03 0.03 0.03 0.03 0.03 0.09 0.22 0.49
0.28 0.56 0.81 0.67 0.63 0.68 0.48 0.16 0.07 0.06 0.08 0.11 0.12 0.11 0.17 0.19 0.21 0.19 0.05 0.01 0.02 0.03 0.02 0.01 0.03 0.05 0.05 0.05 0.03 0.01 0.00 0.00 0.00 0.00 0.02 0.06 0.05 0.04 0.06 0.08 0.10 0.14 0.24
0.17 0.24 0.46 0.59 0.55 0.50 0.49 0.36 0.26 0.23 0.28 0.36 0.32 0.22 0.17 0.24 0.29 0.23 0.18 0.12 0.04 0.03 0.04 0.04 0.05 0.08 0.14 0.13 0.12 0.10 0.07 0.04 0.01 0.00 0.00 0.02 0.06 0.10 0.08 0.08 0.09 0.13 0.24
0.13 0.15 0.25 0.31 0.44 0.53 0.62 0.70 0.69 0.58 0.43 0.49 0.53 0.46 0.25 0.24 0.26 0.24 0.18 0.12 0.18 0.12 0.08 0.14 0.20 0.15 0.15 0.14 0.15 0.20 0.14 0.08 0.05 0.03 0.03 0.01 0.00 0.03 0.10 0.13 0.14 0.16 0.25
0.09 0.19 0.29 0.27 0.25 0.39 0.78 0.92 0.95 0.73 0.59 0.57 0.63 0.57 0.48 0.31 0.27 0.29 0.27 0.25 0.33 0.24 0.19 0.16 0.17 0.15 0.22 0.39 0.36 0.27 0.18 0.20 0.14 0.06 0.03 0.03 0.04 0.03 0.04 0.07 0.11 0.16 0.21
0.24 0.40 0.56 0.61 0.50 0.42 0.49 0.71 0.85 0.87 0.85 0.72 0.61 0.53 0.45 0.39 0.41 0.44 0.49 0.60 0.50 0.27 0.18 0.15 0.05 0.10 0.13 0.14 0.26 0.28 0.16 0.15 0.18 0.17 0.11 0.05 0.01 0.01 0.02 0.03 0.04 0.07 0.09
0.28 0.40 0.51 0.43 0.42 0.38 0.44 0.61 0.67 0.54 0.48 0.52 0.48 0.46 0.39 0.31 0.31 0.31 0.37 0.48 0.75 0.49 0.10 0.05 0.09 0.09 0.14 0.12 0.14 0.21 0.26 0.19 0.15 0.14 0.10 0.08 0.07 0.04 0.01 0.01 0.03 0.03 0.06
0.77 0.50 0.54 0.53 0.40 0.27 0.26 0.29 0.33 0.34 0.36 0.37 0.38 0.31 0.26 0.21 0.25 0.23 0.22 0.22 0.24 0.26 0.18 0.01 0.01 0.01 0.03 0.05 0.06 0.08 0.13 0.20 0.13 0.14 0.18 0.13 0.08 0.11 0.14 0.11 0.07 0.05 0.04
0.96 0.82 0.62 0.63 0.56 0.50 0.46 0.41 0.34 0.30 0.27 0.22 0.21 0.23 0.19 0.17 0.17 0.15 0.15 0.16 0.14 0.15 0.14 0.04 0.02 0.00 0.01 0.01 0.01 0.01 0.02 0.04 0.05 0.06 0.14 0.20 0.14 0.12 0.14 0.15 0.14 0.09 0.05
0.72 0.50 0.36 0.28 0.30 0.34 0.37 0.30 0.24 0.19 0.19 0.19 0.21 0.27 0.27 0.27 0.24 0.20 0.18 0.18 0.18 0.19 0.22 0.14 0.08 0.05 0.04 0.02 0.01 0.01 0.00 0.01 0.00 0.02 0.04 0.08 0.14 0.11 0.11 0.10 0.09 0.11 0.12
0.19 0.12 0.10 0.13 0.15 0.15 0.20 0.27 0.30 0.28 0.27 0.25 0.25 0.28 0.30 0.34 0.30 0.28 0.30 0.28 0.24 0.22 0.22 0.25 0.14 0.07 0.06 0.03 0.04 0.03 0.02 0.01 0.00 0.01 0.01 0.02 0.02 0.04 0.07 0.06 0.05 0.08 0.12
0.22 0.15 0.13 0.14 0.14 0.14 0.14 0.12 0.12 0.09 0.09 0.13 0.18 0.21 0.20 0.20 0.19 0.17 0.16 0.14 0.16 0.19 0.20 0.24 0.22 0.13 0.09 0.06 0.08 0.07 0.07 0.04 0.03 0.02 0.02 0.03 0.04 0.05 0.06 0.09 0.11 0.12 0.15
0.06 0.08 0.12 0.19 0.18 0.15 0.14 0.12 0.08 0.07 0.07 0.08 0.08 0.07 0.06 0.11 0.12 0.10 0.11 0.11 0.17 0.22 0.23 0.25 0.23 0.22 0.16 0.15 0.17 0.15 0.20 0.12 0.10 0.09 0.10 0.09 0.13 0.16 0.18 0.21 0.22 0.22 0.21
0.10 0.14 0.16 0.16 0.13 0.11 0.17 0.11 0.06 0.04 0.04 0.06 0.05 0.05 0.07 0.16 0.12 0.15 0.16 0.17 0.17 0.23 0.30 0.30 0.31 0.32 0.26 0.24 0.28 0.32 0.31 0.34 0.36 0.27 0.30 0.28 0.23 0.23 0.22 0.28 0.41 0.40 0.33
0.32 0.26 0.26 0.18 0.11 0.08 0.14 0.08 0.08 0.04 0.07 0.07 0.07 0.06 0.06 0.08 0.12 0.05 0.10 0.17 0.19 0.25 0.32 0.39 0.47 0.40 0.41 0.38 0.46 0.54 0.57 0.61 0.58 0.43 0.43 0.39 0.30 0.29 0.25 0.29 0.45 0.45 0.45
0.39 0.29 0.23 0.25 0.21 0.21 0.22 0.13 0.14 0.06 0.07 0.07 0.07 0.08 0.11 0.11 0.15 0.16 0.19 0.25 0.24 0.29 0.36 0.42 0.54 0.59 0.63 0.62 0.64 0.70 0.77 0.80 0.71 0.57 0.52 0.54 0.42 0.46 0.45 0.46 0.67 0.53 0.41
0.23 0.24 0.30 0.33 0.29 0.30 0.43 0.24 0.18 0.11 0.16 0.16 0.18 0.25 0.29 0.23 0.50 0.56 0.47 0.44 0.51 0.72 0.98 0.99 1.08 1.09 1.04 0.90 0.78 0.85 1.03 1.30 1.32 1.04 0.88 0.80 0.64 0.60 0.55 0.52 0.60 0.67 0.46
0.18 0.23 0.27 0.29 0.43 0.27 0.49 0.34 0.27 0.22 0.28 0.29 0.27 0.33 0.69 0.47 0.64 0.52 0.51 0.44 0.52 0.54 0.63 0.67 0.73 0.76 0.72 0.69 0.73 0.68 0.76 1.10 1.25 1.28 0.95 0.95 0.76 0.83 0.91 0.68 0.61 0.57 0.53

GFSMA_prec_precacc_105.txt.gz
Total_Precipitation_Accumulation
0.57 0.90 0.71 0.66 0.48 1.02 0.61 0.34 0.39 0.31 0.32 0.30 0.28 0.16 0.02 0.00 0.00 0.00 0.00 0.02 0.05 0.04 0.03 0.04 0.04 0.04 0.03 0.06 0.10 0.11 0.18 0.24 0.21 0.25 0.40 0.45 0.31 0.28 0.23 0.21 0.16 0.12 0.16
0.53 0.90 0.81 0.71 0.46 0.71 0.58 0.47 0.31 0.39 0.35 0.44 0.21 0.11 0.01 0.00 0.00 0.00 0.00 0.01 0.03 0.03 0.04 0.05 0.05 0.03 0.03 0.02 0.03 0.05 0.08 0.13 0.22 0.29 0.33 0.37 0.35 0.27 0.25 0.22 0.21 0.19 0.16
0.28 0.48 0.69 0.54 0.52 0.59 0.48 0.61 0.56 0.44 0.42 0.50 0.19 0.06 0.00 0.00 0.00 0.00 0.00 0.01 0.02 0.02 0.04 0.05 0.05 0.03 0.02 0.02 0.01 0.01 0.01 0.02 0.07 0.16 0.21 0.31 0.43 0.35 0.33 0.31 0.28 0.30 0.26
0.21 0.24 0.41 0.66 0.52 0.57 0.35 0.40 0.65 0.48 0.37 0.33 0.15 0.04 0.00 0.00 0.00 0.00 0.00 0.00 0.01 0.01 0.02 0.03 0.03 0.02 0.03 0.01 0.00 0.00 0.00 0.01 0.01 0.06 0.11 0.27 0.49 0.43 0.42 0.34 0.36 0.42 0.41
0.28 0.21 0.29 0.39 0.67 0.44 0.35 0.45 0.55 0.60 0.34 0.26 0.13 0.03 0.00 0.00 0.00 0.00 0.00 0.00 0.00 0.00 0.01 0.02 0.02 0.01 0.01 0.01 0.01 0.01 0.00 0.00 0.00 0.02 0.07 0.12 0.22 0.60 0.78 0.65 0.43 0.45 0.53
0.43 0.39 0.35 0.26 0.32 0.49 0.43 0.58 0.69 0.62 0.43 0.22 0.11 0.04 0.01 0.00 0.00 0.00 0.00 0.00 0.00 0.00 0.00 0.01 0.01 0.00 0.01 0.01 0.01 0.01 0.01 0.00 0.01 0.01 0.03 0.06 0.10 0.17 0.30 0.55 0.78 0.81 0.73
0.55 0.68 0.61 0.58 0.38 0.18 0.38 0.47 0.81 0.78 0.52 0.26 0.11 0.06 0.05 0.02 0.00 0.00 0.00 0.00 0.00 0.00 0.00 0.01 0.00 0.00 0.00 0.00 0.01 0.00 0.01 0.01 0.00 0.00 0.02 0.02 0.02 0.04 0.17 0.35 0.65 0.94 1.19
0.82 0.67 0.59 0.74 0.69 0.36 0.16 0.29 0.58 0.88 0.62 0.22 0.06 0.01 0.02 0.02 0.03 0.01 0.00 0.00 0.00 0.01 0.00 0.00 0.00 0.00 0.00 0.00 0.00 0.00 0.01 0.01 0.01 0.01 0.01 0.01 0.02 0.02 0.01 0.04 0.22 0.64 0.94
0.62 0.84 0.73 0.65 0.71 0.45 0.19 0.12 0.22 0.50 0.37 0.18 0.05 0.05 0.13 0.13 0.08 0.03 0.01 0.01 0.02 0.01 0.01 0.01 0.01 0.01 0.00 0.00 0.00 0.00 0.00 0.00 0.01 0.03 0.04 0.03 0.03 0.03 0.03 0.03 0.09 0.22 0.49
0.29 0.58 0.82 0.69 0.64 0.71 0.50 0.18 0.09 0.25 0.31 0.18 0.17 0.16 0.18 0.21 0.22 0.19 0.06 0.01 0.02 0.03 0.02 0.01 0.03 0.05 0.05 0.05 0.03 0.01 0.00 0.00 0.00 0.00 0.03 0.07 0.05 0.04 0.06 0.08 0.10 0.14 0.24
0.17 0.26 0.48 0.61 0.57 0.51 0.53 0.43 0.27 0.26 0.37 0.42 0.35 0.25 0.20 0.26 0.30 0.24 0.19 0.12 0.05 0.03 0.04 0.04 0.05 0.08 0.14 0.13 0.12 0.10 0.07 0.04 0.01 0.00 0.00 0.02 0.07 0.10 0.08 0.08 0.09 0.13 0.24
0.13 0.16 0.28 0.35 0.47 0.55 0.66 0.73 0.71 0.59 0.43 0.50 0.54 0.46 0.26 0.25 0.26 0.25 0.18 0.13 0.19 0.12 0.08 0.14 0.20 0.15 0.15 0.14 0.15 0.20 0.14 0.08 0.05 0.03 0.03 0.01 0.00 0.04 0.12 0.16 0.16 0.17 0.25
0.09 0.19 0.31 0.30 0.27 0.42 0.79 0.98 1.08 0.80 0.61 0.58 0.63 0.58 0.49 0.31 0.27 0.30 0.27 0.27 0.35 0.27 0.21 0.17 0.17 0.15 0.22 0.39 0.36 0.27 0.18 0.20 0.14 0.06 0.03 0.03 0.04 0.03 0.04 0.07 0.12 0.17 0.24
0.24 0.40 0.56 0.63 0.51 0.42 0.50 0.71 0.90 0.97 1.01 0.78 0.64 0.56 0.46 0.39 0.41 0.44 0.49 0.62 0.52 0.30 0.21 0.16 0.06 0.10 0.13 0.14 0.26 0.28 0.16 0.15 0.18 0.17 0.11 0.05 0.01 0.01 0.02 0.03 0.04 0.07 0.09
0.28 0.40 0.51 0.45 0.44 0.38 0.44 0.61 0.69 0.60 0.65 0.73 0.62 0.52 0.43 0.34 0.33 0.32 0.38 0.49 0.77 0.51 0.11 0.06 0.10 0.09 0.14 0.12 0.14 0.21 0.26 0.19 0.15 0.14 0.10 0.08 0.07 0.04 0.01 0.01 0.03 0.03 0.06
0.77 0.50 0.54 0.54 0.41 0.27 0.27 0.30 0.34 0.35 0.38 0.42 0.45 0.37 0.30 0.28 0.32 0.30 0.28 0.25 0.26 0.27 0.18 0.01 0.01 0.01 0.03 0.05 0.06 0.08 0.13 0.20 0.13 0.14 0.18 0.13 0.08 0.11 0.14 0.11 0.07 0.05 0.04
0.96 0.82 0.63 0.64 0.56 0.50 0.47 0.41 0.35 0.30 0.28 0.24 0.22 0.27 0.27 0.31 0.30 0.27 0.22 0.20 0.16 0.15 0.15 0.04 0.02 0.00 0.02 0.05 0.02 0.02 0.02 0.04 0.05 0.06 0.14 0.20 0.14 0.12 0.14 0.15 0.14 0.09 0.05
0.72 0.50 0.36 0.29 0.30 0.34 0.37 0.31 0.24 0.20 0.20 0.20 0.21 0.27 0.29 0.32 0.32 0.28 0.25 0.22 0.19 0.20 0.23 0.14 0.08 0.05 0.04 0.04 0.04 0.05 0.03 0.02 0.00 0.02 0.04 0.08 0.14 0.11 0.11 0.10 0.09 0.11 0.12
0.19 0.12 0.10 0.13 0.15 0.15 0.20 0.28 0.30 0.28 0.28 0.25 0.25 0.28 0.30 0.34 0.31 0.29 0.31 0.29 0.24 0.22 0.23 0.26 0.15 0.08 0.07 0.03 0.05 0.06 0.07 0.06 0.02 0.01 0.01 0.02 0.02 0.04 0.07 0.06 0.05 0.08 0.12
0.22 0.15 0.13 0.14 0.14 0.14 0.14 0.12 0.12 0.09 0.09 0.13 0.18 0.21 0.20 0.20 0.19 0.17 0.16 0.15 0.16 0.19 0.20 0.24 0.22 0.13 0.10 0.07 0.11 0.09 0.09 0.06 0.05 0.03 0.03 0.03 0.04 0.05 0.06 0.09 0.11 0.12 0.15
0.06 0.08 0.12 0.19 0.18 0.15 0.14 0.12 0.08 0.07 0.07 0.08 0.08 0.07 0.06 0.11 0.12 0.10 0.11 0.11 0.17 0.22 0.23 0.25 0.24 0.22 0.16 0.15 0.17 0.15 0.21 0.13 0.11 0.11 0.12 0.12 0.16 0.18 0.20 0.23 0.23 0.22 0.21
0.10 0.15 0.16 0.16 0.14 0.11 0.18 0.11 0.06 0.04 0.05 0.06 0.06 0.05 0.07 0.16 0.12 0.15 0.16 0.17 0.17 0.24 0.30 0.31 0.31 0.32 0.26 0.24 0.28 0.34 0.34 0.38 0.39 0.29 0.35 0.32 0.26 0.26 0.23 0.29 0.44 0.42 0.34
0.32 0.27 0.26 0.19 0.12 0.09 0.14 0.08 0.08 0.05 0.07 0.07 0.07 0.06 0.06 0.08 0.12 0.05 0.10 0.17 0.19 0.25 0.33 0.41 0.49 0.42 0.44 0.41 0.48 0.57 0.59 0.63 0.61 0.45 0.45 0.42 0.33 0.34 0.32 0.36 0.56 0.49 0.47
0.40 0.29 0.24 0.26 0.22 0.21 0.22 0.13 0.15 0.06 0.07 0.09 0.11 0.09 0.12 0.13 0.20 0.21 0.20 0.29 0.33 0.38 0.43 0.49 0.63 0.67 0.67 0.64 0.66 0.74 0.83 0.85 0.76 0.62 0.58 0.64 0.51 0.56 0.56 0.55 0.83 0.63 0.47
0.26 0.25 0.31 0.36 0.32 0.32 0.47 0.25 0.19 0.11 0.18 0.20 0.20 0.26 0.30 0.24 0.57 0.62 0.52 0.52 0.64 0.90 1.17 1.18 1.32 1.32 1.24 1.06 0.92 1.00 1.23 1.52 1.53 1.23 1.05 0.95 0.77 0.73 0.69 0.65 0.72 0.79 0.52
0.30 0.29 0.30 0.31 0.47 0.28 0.52 0.35 0.28 0.22 0.29 0.31 0.29 0.36 0.75 0.50 0.67 0.54 0.53 0.46 0.54 0.57 0.68 0.75 0.81 0.85 0.79 0.75 0.80 0.74 0.85 1.22 1.38 1.40 1.04 1.03 0.84 0.92 1.01 0.76 0.65 0.60 0.55